Home > Weather > Dessau-Rosslau > Past weeks

Flag for Germany Weather for the Past 2 Weeks in Dessau-Rosslau, Saxony-Anhalt, Germany

Now
55 °F

Passing clouds.


Feels Like: 53 °F
Forecast: 47 / 70 °F
Wind: 8 mph from East

Location: Leipzig-Schkeuditz

Current Time: May 5, 2016 at 10:43:29 AM

Latest Report: May 5, 2016 at 10:20 AM


Visibility: N/A

Pressure: 30.36 "Hg

Humidity: 55%

Dew Point: 39 °F

Location of Dessau-RosslauLocation

Historic Weather in Dessau-Rosslau — Graph

°F

Dessau-Rosslau Temperature Yesterday

Maximum temperature yesterday: 55 °F (at 2:50 PM)
Minimum temperature yesterday: 41 °F (at 5:20 AM)
Average temperature yesterday: 48 °F

High & Low Weather Summary for the Past Weeks

 TemperatureHumidityPressure
High66 °F (Apr 30, 2:20 PM)100% (Apr 25, 3:20 AM)30.42 "Hg (Apr 25, 3:20 AM)
Low28 °F (Apr 25, 2:20 AM)32% (Apr 30, 1:50 PM)29.47 "Hg (Apr 26, 3:20 AM)
Average46 °F68%30.01 "Hg
* Reported Apr 20 9:20 AM — May 5 9:20 AM, Dessau-Rosslau, Weather by CustomWeather, © 2016

Note: Actual official high and low records may vary slightly from our data, if they occured in-between our weather recording intervals... More about our weather records

Advertising

Dessau-Rosslau Weather History for the Previous 24 Hours

Scroll right to see more
 ConditionsComfort  
Time TempWeatherWind HumidityBarometerVisibility
9:20 AM
Thu, May 5
54 °FSunny.9 mph58%30.39 "Hg10 mi
8:50 AM54 °FPassing clouds.8 mph58%30.39 "HgN/A
8:20 AM52 °FSunny.9 mph67%30.36 "Hg10 mi
7:50 AM50 °FSunny.6 mph71%30.36 "Hg10 mi
7:20 AM48 °FSunny.7 mph76%30.36 "Hg10 mi
6:50 AM48 °FSunny.5 mph76%30.36 "Hg10 mi
6:20 AM46 °FClear.5 mph82%30.36 "Hg10 mi
5:50 AM46 °FClear.6 mph82%30.36 "Hg10 mi
5:20 AM46 °FClear.6 mph82%30.36 "Hg10 mi
4:50 AM46 °FClear.6 mph82%30.36 "Hg10 mi
4:20 AM46 °FClear.6 mph87%30.36 "Hg10 mi
3:50 AM46 °FClear.6 mph87%30.36 "Hg10 mi
3:20 AM46 °FClear.5 mph87%30.36 "Hg10 mi
2:50 AM48 °FClear.5 mph82%30.36 "Hg10 mi
2:20 AM48 °FClear.5 mph82%30.36 "Hg10 mi
1:50 AM48 °FClear.6 mph82%30.36 "Hg10 mi
1:20 AM48 °FClear.6 mph82%30.39 "Hg10 mi
12:50 AM48 °FClear.5 mph82%30.39 "Hg10 mi
12:20 AM48 °FClear.6 mph82%30.39 "Hg10 mi
11:50 PM
Wed, May 4
48 °FClear.7 mph82%30.39 "Hg10 mi
11:20 PM48 °FClear.6 mph82%30.39 "Hg10 mi
10:50 PM48 °FClear.5 mph82%30.39 "Hg10 mi
10:20 PM48 °FClear.7 mph82%30.36 "Hg10 mi
9:50 PM48 °FClear.5 mph82%30.36 "Hg10 mi
9:20 PM46 °FSunny.2 mph82%30.36 "Hg10 mi
8:50 PM48 °FSunny.1 mph76%30.36 "Hg10 mi
8:20 PM50 °FSunny.2 mph71%30.36 "Hg10 mi
7:50 PM52 °FScattered clouds.2 mph62%30.36 "HgN/A
7:20 PM54 °FScattered clouds.3 mph58%30.36 "HgN/A
6:50 PM54 °FScattered clouds.5 mph58%30.36 "HgN/A
6:20 PM54 °FScattered clouds.9 mph67%30.36 "HgN/A
5:50 PM52 °FBroken clouds.13 mph72%30.36 "HgN/A
5:20 PM52 °FBroken clouds.10 mph67%30.36 "HgN/A
4:50 PM54 °FBroken clouds.7 mph58%30.36 "HgN/A
4:20 PM54 °FBroken clouds.8 mph54%30.36 "HgN/A
3:50 PM54 °FScattered clouds.9 mph54%30.36 "HgN/A
3:20 PM54 °FBroken clouds.9 mph54%30.36 "HgN/A
2:50 PM55 °FBroken clouds.13 mph55%30.36 "HgN/A
2:20 PM54 °FBroken clouds.10 mph58%30.36 "HgN/A
1:50 PM52 °FBroken clouds.12 mph58%30.36 "HgN/A
1:20 PM52 °FBroken clouds.14 mph62%30.36 "HgN/A
12:50 PM52 °FPartly sunny.10 mph62%30.36 "HgN/A
12:20 PM52 °FPartly sunny.15 mph72%30.36 "HgN/A
11:50 AM48 °FPartly sunny.13 mph71%30.36 "HgN/A
11:20 AM48 °FPartly sunny.15 mph71%30.36 "HgN/A
10:50 AM48 °FBroken clouds.14 mph71%30.36 "HgN/A
10:20 AM46 °FBroken clouds.16 mph76%30.36 "HgN/A
Weather by CustomWeather, © 2016

See weather overviewHow to use our weather pages